{"data":{"norad_id":82693,"epoch":"2026-05-23T21:47:40.519968Z","epoch_age_seconds":166616,"freshness":"FRESH","line1":"1 82693U          26143.90810787  .00001809  00000+0  20925-2 0  9991","line2":"2 82693 100.5255 127.4304 0042318 345.1363  14.8533 13.70382861575967","mean_motion":13.70382861,"eccentricity":0.0042318,"inclination_deg":100.5255,"raan_deg":127.4304,"arg_perigee_deg":345.1363,"mean_anomaly_deg":14.8533,"bstar":0.0020925,"rev_number":57596,"period_min":105.08012329848,"perigee_km":966.98164500523,"apogee_km":1029.4119838771,"semimajor_km":7376.3338144412,"source":"CELESTRAK","updated_at":"2026-05-25T13:38:11.193385Z"}}